VE3COE Weather Reports


time (UTC)temp
C
wind
direction
speed
KPH
gust
KPH
rain 1hr
cm
rain 24hr
cm
rain mn
cm
humidity
%
barometer
mb
20260506085531 4 100 6.4 29.0 0.00 0.00 0.00 82 1006.5
20260506082530 5 91 6.4 27.4 0.00 0.00 0.00 82 1006.7
20260506072525 6 0 8.0 25.7 0.00 0.00 0.00 79 1006.4
20260506060905 7 92 3.2 14.5 0.00 0.00 0.00 74 1005.9
20260506042522 7 106 6.4 12.9 0.00 0.05 0.00 77 1006.2
20260506035522 7 81 4.8 14.5 0.00 0.05 0.05 75 1005.9
20260506032521 8 261 3.2 11.3 0.00 0.05 0.05 71 1006.0
20260506030902 7 81 1.6 11.3 0.00 0.05 0.05 70 1006.0
20260506022522 7 54 3.2 11.3 0.00 0.05 0.05 69 1006.0
20260506015521 7 71 1.6 8.0 0.00 0.05 0.05 71 1005.9
20260506012521 7 41 1.6 11.3 0.00 0.05 0.05 69 1005.6
20260506012256 8 261 4.8 12.9 0.00 0.05 0.05 70 1005.0
20260506002519 9 99 3.2 14.5 0.00 0.05 0.05 70 1004.8
20260505235519 10 82 3.2 9.7 0.00 0.05 0.05 68 1004.7
20260505232519 9 93 1.6 11.3 0.00 0.05 0.05 71 1004.6
20260505225519 9 120 1.6 9.7 0.00 0.05 0.05 71 1004.8
20260505222523 9 261 3.2 12.9 0.00 0.05 0.05 66 1005.0
20260505215525 9 261 4.8 20.9 0.00 0.05 0.05 73 1005.2
20260505212516 8 261 6.4 19.3 0.00 0.05 0.05 75 1005.0
20260505205517 9 261 8.0 17.7 0.00 0.05 0.05 75 1004.8
20260505202516 9 261 8.0 16.1 0.00 0.05 0.05 78 1004.7
20260505195517 12 261 1.6 4.8 0.00 0.05 0.05 67 1004.6
20260505192514 11 330 3.2 6.4 0.00 0.05 0.05 65 1004.4
20260505185515 9 261 1.6 11.3 0.00 0.05 0.05 73 1004.3
20260505182514 8 261 6.4 14.5 0.00 0.05 0.05 74 1004.2
20260505175514 8 261 8.0 12.9 0.00 0.05 0.05 76 1004.3
20260505172521 7 261 4.8 9.7 0.00 0.05 0.05 78 1004.1
20260505165512 7 261 1.6 4.8 0.00 0.05 0.05 81 1004.2
20260505162510 7 0 1.6 8.0 0.00 0.05 0.05 82 1004.3
20260505152509 6 261 3.2 9.7 0.00 0.05 0.05 79 1004.0
20260505122507 6 261 4.8 17.7 0.00 0.05 0.05 82 1001.6
20260505115507 6 261 1.6 12.9 0.00 0.05 0.05 83 1000.8
20260505112505 6 261 8.0 22.5 0.00 0.05 0.05 84 1000.0
20260505095503 6 29 8.0 22.5 0.00 0.05 0.05 87 998.3
20260505092503 6 51 4.8 17.7 0.00 0.05 0.05 90 997.4